Location: Ambrosina
(19.9365°S, 43.9833°W)
Time: 00:32:00
(UTC+00:00)

S3M - Pass Details

Date: 11 May 2021
Orbit: 948 x 1005 km, 83.0° (Epoch: 20 June)

Event Time Altitude Azimuth Distance (km) Brightness Sun altitude
Rises 22:44:37 0° 190° (S) 3,729 7.1 -31.8°
Reaches altitude 10° 22:47:10 10° 193° (SSW) 2,780 6.4 -32.4°
Maximum altitude 22:53:28 63° 272° (W) 1,114 4.4 -33.8°
Drops below altitude 10° 22:59:46 10° 352° (N) 2,769 6.5 -35.3°
Sets 23:02:18 0° 355° (N) 3,713 7.2 -35.9°
